EZY959N EGKK-EGPH

Flight info

Callsign EZY959N
Flight time N/A
Altitude 38000
Route LAM L10 BPK UN601 RIBEL DCT INPIP
Aircraft A20N/M-SDE2E3FGHIRWXY/LB1

Departure

Time N/A
Airport London Gatwick Airport (EGKK)

Arrival

Time 2026-04-24 13:13
Airport Edinburgh Airport (EGPH)
Time Latitude Longitude Altitude Speed Heading
2026-04-24 12:20 51.64093 -0.02685 19204 ft 392 kts 329°
2026-04-24 12:20 51.66477 -0.04812 19344 ft 393 kts 329°
2026-04-24 12:20 51.68582 -0.06694 19408 ft 395 kts 329°
2026-04-24 12:20 51.70913 -0.08780 19938 ft 398 kts 329°
2026-04-24 12:21 51.73415 -0.11017 20823 ft 399 kts 329°
2026-04-24 12:21 51.75856 -0.13206 21512 ft 404 kts 329°
2026-04-24 12:21 51.78323 -0.15420 22218 ft 408 kts 329°
2026-04-24 12:21 51.80810 -0.17655 22894 ft 412 kts 329°
2026-04-24 12:22 51.83330 -0.19922 23543 ft 416 kts 329°
2026-04-24 12:22 51.85874 -0.22215 24178 ft 420 kts 328°
2026-04-24 12:22 51.88399 -0.24489 24848 ft 420 kts 328°
2026-04-24 12:22 51.90956 -0.26793 25514 ft 421 kts 328°
2026-04-24 12:23 51.93519 -0.29108 26135 ft 422 kts 328°
2026-04-24 12:23 51.96087 -0.31433 26750 ft 423 kts 327°
2026-04-24 12:23 51.98666 -0.33772 27329 ft 425 kts 327°
2026-04-24 12:23 52.01252 -0.36121 27891 ft 427 kts 327°
2026-04-24 12:24 52.03844 -0.38480 28447 ft 429 kts 327°
2026-04-24 12:24 52.06451 -0.40854 28973 ft 430 kts 326°
2026-04-24 12:24 52.09065 -0.43239 29486 ft 432 kts 326°
2026-04-24 12:24 52.11667 -0.45702 29972 ft 433 kts 324°
2026-04-24 12:25 52.14256 -0.48226 30436 ft 435 kts 324°
2026-04-24 12:25 52.16857 -0.50778 30802 ft 438 kts 324°
2026-04-24 12:25 52.19480 -0.53347 31157 ft 441 kts 324°
2026-04-24 12:25 52.22122 -0.55926 31530 ft 444 kts 324°
2026-04-24 12:26 52.24773 -0.58509 31989 ft 444 kts 325°
2026-04-24 12:26 52.27420 -0.61089 32500 ft 443 kts 325°
2026-04-24 12:26 52.30059 -0.63665 33018 ft 441 kts 325°
2026-04-24 12:26 52.32687 -0.66233 33530 ft 440 kts 325°
2026-04-24 12:27 52.35256 -0.68748 34038 ft 438 kts 325°
2026-04-24 12:27 52.37866 -0.71308 34511 ft 436 kts 325°
2026-04-24 12:27 52.40468 -0.73864 34896 ft 436 kts 325°
2026-04-24 12:27 52.43032 -0.76386 35247 ft 436 kts 325°
2026-04-24 12:28 52.45606 -0.78922 35572 ft 436 kts 325°
2026-04-24 12:28 52.48211 -0.81491 35906 ft 436 kts 325°
2026-04-24 12:28 52.50808 -0.84057 36229 ft 436 kts 325°
2026-04-24 12:28 52.53410 -0.86630 36532 ft 436 kts 325°
2026-04-24 12:29 52.56005 -0.89199 36831 ft 436 kts 325°
2026-04-24 12:29 52.58605 -0.91777 37132 ft 436 kts 326°
2026-04-24 12:29 52.61207 -0.94359 37419 ft 437 kts 326°
2026-04-24 12:29 52.63805 -0.96942 37708 ft 437 kts 326°
2026-04-24 12:30 52.66403 -0.99528 37985 ft 437 kts 326°
2026-04-24 12:30 52.68710 -1.01828 38222 ft 437 kts 326°
2026-04-24 12:30 52.71310 -1.04423 38347 ft 437 kts 326°
2026-04-24 12:31 52.76497 -1.09612 38349 ft 436 kts 326°
2026-04-24 12:31 52.81684 -1.14815 38350 ft 437 kts 326°
2026-04-24 12:32 52.86877 -1.20039 38349 ft 437 kts 326°
2026-04-24 12:32 52.91723 -1.24926 38345 ft 437 kts 326°
2026-04-24 12:33 52.96904 -1.30165 38346 ft 437 kts 326°
2026-04-24 12:33 53.02093 -1.35426 38346 ft 437 kts 326°
2026-04-24 12:34 53.07276 -1.40698 38351 ft 437 kts 327°
2026-04-24 12:34 53.12457 -1.45981 38353 ft 437 kts 327°
2026-04-24 12:35 53.17596 -1.51236 38351 ft 436 kts 327°
2026-04-24 12:35 53.22764 -1.56538 38343 ft 436 kts 327°
2026-04-24 12:36 53.27934 -1.61856 38356 ft 436 kts 327°
2026-04-24 12:36 53.33077 -1.67162 38349 ft 436 kts 327°
2026-04-24 12:37 53.38240 -1.72505 38344 ft 437 kts 327°
2026-04-24 12:37 53.43402 -1.77860 38337 ft 436 kts 327°
2026-04-24 12:38 53.48563 -1.83230 38340 ft 436 kts 327°
2026-04-24 12:38 53.53722 -1.88607 38341 ft 436 kts 327°
2026-04-24 12:39 53.64038 -1.99412 38339 ft 437 kts 327°
2026-04-24 12:40 53.69188 -2.04840 38335 ft 437 kts 327°
2026-04-24 12:40 53.74415 -2.10097 38337 ft 437 kts 333°
2026-04-24 12:41 53.80021 -2.14116 38347 ft 438 kts 337°
2026-04-24 12:41 53.85666 -2.17998 38335 ft 438 kts 337°
2026-04-24 12:42 53.91311 -2.21884 38329 ft 438 kts 337°
2026-04-24 12:42 53.96965 -2.25769 38323 ft 438 kts 337°
2026-04-24 12:43 54.02609 -2.29656 38324 ft 438 kts 337°
2026-04-24 12:43 54.08253 -2.33554 38334 ft 437 kts 337°
2026-04-24 12:44 54.13889 -2.37455 38330 ft 437 kts 338°
2026-04-24 12:44 54.19522 -2.41365 38326 ft 437 kts 338°
2026-04-24 12:45 54.25150 -2.45285 38322 ft 436 kts 338°
2026-04-24 12:45 54.30768 -2.49209 38318 ft 436 kts 338°
2026-04-24 12:46 54.36337 -2.53111 38328 ft 436 kts 338°
2026-04-24 12:46 54.41947 -2.57053 38318 ft 436 kts 338°
2026-04-24 12:46 54.44744 -2.59023 38195 ft 433 kts 338°
2026-04-24 12:47 54.47533 -2.60990 37733 ft 433 kts 338°
2026-04-24 12:47 54.50324 -2.62963 36965 ft 436 kts 338°
2026-04-24 12:47 54.53136 -2.64955 36070 ft 437 kts 339°
2026-04-24 12:47 54.55960 -2.66960 34841 ft 441 kts 340°
2026-04-24 12:48 54.58798 -2.68978 33564 ft 443 kts 340°
2026-04-24 12:48 54.61643 -2.70999 32491 ft 440 kts 340°
2026-04-24 12:48 54.64443 -2.72994 31781 ft 430 kts 340°
2026-04-24 12:48 54.67185 -2.74949 31052 ft 424 kts 340°
2026-04-24 12:49 54.69902 -2.76888 30306 ft 418 kts 340°
2026-04-24 12:49 54.72580 -2.78802 29794 ft 417 kts 339°
2026-04-24 12:49 54.75268 -2.80723 29200 ft 419 kts 339°
2026-04-24 12:49 54.77945 -2.82640 28626 ft 417 kts 339°
2026-04-24 12:50 54.80616 -2.84555 28044 ft 412 kts 339°
2026-04-24 12:50 54.83244 -2.86444 27487 ft 405 kts 339°
2026-04-24 12:50 54.85834 -2.88306 26908 ft 401 kts 339°
2026-04-24 12:50 54.88403 -2.90154 26360 ft 398 kts 339°
2026-04-24 12:51 54.90972 -2.92005 25437 ft 404 kts 339°
2026-04-24 12:51 54.93590 -2.93895 24561 ft 409 kts 338°
2026-04-24 12:51 54.96210 -2.95789 24018 ft 406 kts 338°
2026-04-24 12:51 54.98797 -2.97663 23687 ft 402 kts 338°
2026-04-24 12:52 55.01392 -2.99547 23395 ft 405 kts 338°
2026-04-24 12:52 55.03990 -3.01436 22999 ft 403 kts 338°
2026-04-24 12:52 55.06554 -3.03303 22557 ft 397 kts 338°
2026-04-24 12:52 55.09078 -3.05142 22021 ft 391 kts 338°
2026-04-24 12:53 55.11579 -3.06964 20865 ft 391 kts 338°
2026-04-24 12:53 55.14129 -3.08824 19277 ft 403 kts 338°
2026-04-24 12:53 55.16760 -3.10744 17327 ft 418 kts 337°
2026-04-24 12:53 55.19456 -3.12717 15849 ft 420 kts 337°
2026-04-24 12:54 55.22093 -3.14651 14680 ft 413 kts 337°
2026-04-24 12:54 55.24731 -3.16494 13464 ft 406 kts 343°
2026-04-24 12:54 55.27492 -3.17188 12881 ft 396 kts 358°
2026-04-24 12:54 55.30186 -3.17198 12650 ft 377 kts 360°
2026-04-24 12:55 55.32710 -3.16552 12439 ft 362 kts 18°
2026-04-24 12:55 55.34875 -3.14563 11960 ft 356 kts 35°
2026-04-24 12:55 55.36709 -3.11666 11370 ft 355 kts 51°
2026-04-24 12:55 55.38115 -3.08123 10965 ft 348 kts 55°
2026-04-24 12:56 55.39448 -3.04638 10539 ft 341 kts 55°
2026-04-24 12:56 55.40356 -3.02393 10196 ft 339 kts 49°
2026-04-24 12:56 55.42202 -2.99793 9629 ft 334 kts 26°
2026-04-24 12:56 55.44364 -2.98659 9116 ft 329 kts
2026-04-24 12:57 55.46611 -2.99062 8573 ft 324 kts 341°
2026-04-24 12:57 55.48553 -3.00946 8135 ft 317 kts 317°
2026-04-24 12:57 55.49880 -3.03931 7825 ft 307 kts 300°
2026-04-24 12:57 55.50896 -3.07213 7463 ft 301 kts 294°
2026-04-24 12:58 55.51668 -3.10669 7346 ft 306 kts 289°
2026-04-24 12:58 55.52375 -3.14156 7316 ft 295 kts 289°
2026-04-24 12:58 55.53046 -3.17467 7321 ft 280 kts 289°
2026-04-24 12:58 55.53709 -3.20744 7315 ft 286 kts 289°
2026-04-24 12:59 55.54366 -3.23995 7322 ft 275 kts 289°
2026-04-24 12:59 55.54993 -3.27108 7311 ft 261 kts 289°
2026-04-24 12:59 55.55588 -3.30056 7217 ft 249 kts 289°
2026-04-24 12:59 55.56160 -3.32882 7089 ft 239 kts 289°
2026-04-24 13:00 55.56717 -3.35632 6816 ft 238 kts 289°
2026-04-24 13:00 55.57270 -3.38378 6602 ft 237 kts 289°
2026-04-24 13:00 55.57820 -3.41109 6314 ft 236 kts 289°
2026-04-24 13:00 55.58366 -3.43832 6112 ft 234 kts 289°
2026-04-24 13:01 55.58908 -3.46520 5974 ft 229 kts 290°
2026-04-24 13:01 55.59770 -3.48950 5966 ft 239 kts 313°
2026-04-24 13:01 55.60925 -3.51016 5968 ft 235 kts 314°
2026-04-24 13:01 55.62082 -3.53057 5968 ft 235 kts 314°
2026-04-24 13:02 55.63234 -3.55092 5967 ft 235 kts 314°
2026-04-24 13:02 55.64374 -3.57093 5970 ft 236 kts 316°
2026-04-24 13:02 55.65616 -3.58976 5966 ft 235 kts 321°
2026-04-24 13:02 55.66928 -3.60729 5966 ft 237 kts 322°
2026-04-24 13:03 55.68199 -3.62417 5965 ft 236 kts 322°
2026-04-24 13:03 55.69525 -3.64176 5963 ft 234 kts 322°
2026-04-24 13:03 55.70826 -3.65903 5969 ft 231 kts 322°
2026-04-24 13:03 55.72080 -3.67567 5961 ft 218 kts 322°
2026-04-24 13:04 55.73259 -3.69129 5974 ft 215 kts 322°
2026-04-24 13:04 55.74456 -3.70709 5848 ft 213 kts 322°
2026-04-24 13:04 55.75618 -3.72270 5690 ft 199 kts 319°
2026-04-24 13:04 55.76592 -3.73914 5540 ft 190 kts 313°
2026-04-24 13:05 55.77486 -3.75573 5298 ft 187 kts 308°
2026-04-24 13:05 55.78211 -3.77488 5010 ft 186 kts 300°
2026-04-24 13:05 55.78859 -3.79489 4654 ft 189 kts 299°
2026-04-24 13:05 55.79536 -3.81546 4254 ft 197 kts 306°
2026-04-24 13:06 55.80643 -3.82816 4067 ft 190 kts 353°
2026-04-24 13:06 55.81850 -3.82217 3979 ft 190 kts 44°
2026-04-24 13:06 55.82473 -3.80183 3936 ft 189 kts 76°
2026-04-24 13:06 55.82774 -3.77918 3841 ft 188 kts 77°
2026-04-24 13:07 55.83067 -3.75652 3734 ft 187 kts 76°
2026-04-24 13:07 55.83376 -3.73399 3657 ft 187 kts 76°
2026-04-24 13:07 55.83719 -3.71180 3611 ft 183 kts 71°
2026-04-24 13:07 55.84192 -3.69161 3532 ft 171 kts 62°
2026-04-24 13:08 55.84763 -3.67345 3440 ft 165 kts 58°
2026-04-24 13:08 55.85333 -3.65676 3360 ft 152 kts 58°
2026-04-24 13:08 55.85871 -3.64101 3283 ft 150 kts 57°
2026-04-24 13:09 55.86969 -3.60861 2979 ft 154 kts 58°
2026-04-24 13:09 55.87519 -3.59254 2778 ft 150 kts 58°
2026-04-24 13:09 55.88059 -3.57640 2563 ft 150 kts 58°
2026-04-24 13:09 55.88581 -3.56137 2395 ft 136 kts 57°
2026-04-24 13:10 55.89060 -3.54732 2210 ft 132 kts 58°
2026-04-24 13:10 55.89535 -3.53330 2049 ft 131 kts 57°
2026-04-24 13:10 55.90004 -3.51956 1863 ft 131 kts 58°
2026-04-24 13:10 55.90473 -3.50573 1692 ft 129 kts 58°
2026-04-24 13:11 55.90936 -3.49211 1500 ft 129 kts 58°
2026-04-24 13:11 55.91399 -3.47848 1345 ft 129 kts 58°
2026-04-24 13:11 55.91861 -3.46499 1162 ft 127 kts 58°
2026-04-24 13:11 55.92306 -3.45178 976 ft 125 kts 59°
2026-04-24 13:12 55.92754 -3.43858 800 ft 121 kts 58°
2026-04-24 13:12 55.93192 -3.42587 685 ft 123 kts 58°
2026-04-24 13:12 55.93629 -3.41295 526 ft 120 kts 58°
2026-04-24 13:12 55.94065 -3.40015 328 ft 120 kts 57°
2026-04-24 13:13 55.94504 -3.38730 171 ft 119 kts 59°
2026-04-24 13:13 55.94905 -3.37532 111 ft 94 kts 58°
2026-04-24 13:13 55.95136 -3.36853 112 ft 40 kts 58°
2026-04-24 13:13 55.95256 -3.36490 111 ft 25 kts 68°
2026-04-24 13:14 55.95198 -3.36359 112 ft 15 kts 146°
2026-04-24 13:14 55.95177 -3.36335 110 ft 1 kts 148°
2026-04-24 13:14 55.95119 -3.36321 112 ft 8 kts 204°
2026-04-24 13:14 55.95089 -3.36413 111 ft 14 kts 239°
2026-04-24 13:15 55.95036 -3.36571 112 ft 10 kts 239°
2026-04-24 13:15 55.94991 -3.36707 111 ft 15 kts 239°
2026-04-24 13:15 55.94919 -3.36832 111 ft 10 kts 176°
2026-04-24 13:15 55.94875 -3.36786 112 ft 9 kts 163°
2026-04-24 13:16 55.94801 -3.36777 112 ft 8 kts 177°
2026-04-24 13:16 55.94749 -3.36760 112 ft 4 kts 128°
2026-04-24 13:16 55.94717 -3.36714 112 ft 8 kts 135°
2026-04-24 13:16 55.94709 -3.36631 109 ft 1 kts 99°
2026-04-24 13:17 55.94708 -3.36627 109 ft 0 kts 100°